User: anonymous   Login
Location: Caltech
(34.1382°N, 118.1253°W)
Time: 17:44:49
(UTC-08:00)
Language:

Cosmos 44 Rocket - Orbit

View from above orbital plane
View from above orbital plane
View from above satellite
View from above satellite

Ground track
Ground track

The orbit data is extracted from the following two-line orbital elements,

1 00877U 64053B   16044.17378564  .00000070  00000-0  39310-4 0  9993
2 00877  65.0777 284.0515 0081410 296.6821  62.5959 14.59215716730017
Epoch (UTC): 13 February 2016 04:10:15
Eccentricity: 0.0081410
inclination: 65.0777°
perigee height: 638 km
apogee height: 753 km
right ascension of ascending node: 284.0515°
argument of perigee: 296.6821°
revolutions per day: 14.59215716
mean anomaly at epoch: 62.5959°
orbit number at epoch: 73001

The dashed part of the orbit path shows where the satellite is in the earth's shadow,  

DLR